Location: Brantley
(31.5822°N, 86.2569°W)
Time: 18:26:22
(UTC+00:00)

Injun/Solrad 3 - All Passes

Search period start: 16 February 2026 00:00
Search period end: 26 February 2026 00:00
Orbit: 873 x 983 km, 66.8° (Epoch: 16 February)

Date Brightness Start Highest point End Pass type
(mag) Time Alt. Az. Time Alt. Az. Time Alt. Az.
16 Feb - 02:30:38 10° NNW 02:36:45 58° ENE 02:43:00 10° SE visible
16 Feb - 04:18:39 10° WNW 04:22:43 18° WSW 04:26:49 10° SW night (unlit)
16 Feb - 15:48:32 10° SSE 15:53:11 25° ESE 15:57:51 10° NE daylight
16 Feb - 17:34:00 10° SW 17:39:21 37° WNW 17:44:47 10° N daylight
17 Feb - 00:57:37 10° NNE 01:00:36 14° NE 01:03:36 10° ENE visible
17 Feb - 02:41:33 10° NNW 02:47:48 89° SW 02:54:11 10° SSE visible
17 Feb - 15:58:35 10° S 16:04:00 42° ESE 16:09:30 10° NE daylight
17 Feb - 17:45:58 10° WSW 17:50:35 24° NW 17:55:16 10° N daylight
18 Feb - 01:07:23 10° N 01:11:59 21° NE 01:16:39 10° ESE visible
18 Feb - 02:52:41 10° NW 02:58:47 57° WSW 03:04:59 10° S visible
18 Feb - 16:09:09 10° SSW 16:14:55 71° ESE 16:20:46 10° NNE daylight
18 Feb - 17:58:35 10° W 18:01:55 15° NW 18:05:18 10° NNW daylight
19 Feb - 01:17:45 10° N 01:23:16 32° ENE 01:28:52 10° ESE visible
19 Feb - 03:04:05 10° NW 03:09:41 35° WSW 03:15:21 10° S visible
19 Feb - 14:38:07 10° SE 14:40:13 12° ESE 14:42:18 10° E daylight
19 Feb - 16:20:08 10° SSW 16:25:55 72° WNW 16:31:48 10° NNE daylight
20 Feb - 01:28:24 10° NNW 01:34:27 50° ENE 01:40:35 10° SE visible
20 Feb - 03:15:56 10° WNW 03:20:30 21° WSW 03:25:08 10° SSW visible
20 Feb - 14:46:42 10° SSE 14:50:57 21° ESE 14:55:14 10° ENE daylight
20 Feb - 16:31:29 10° SW 16:37:00 44° WNW 16:42:36 10° NNE daylight
20 Feb - 23:56:02 10° NNE 23:58:09 12° NE 00:00:17 10° ENE visible
21 Feb - 01:39:16 10° NNW 01:45:31 79° ENE 01:51:54 10° SSE visible
21 Feb - 03:28:49 10° W 03:31:16 12° WSW 03:33:43 10° SW visible
21 Feb - 14:56:32 10° S 15:01:45 36° ESE 15:07:02 10° NE daylight
21 Feb - 16:43:17 10° WSW 16:48:11 28° WNW 16:53:11 10° N daylight
22 Feb - 00:05:24 10° N 00:09:35 18° NE 00:13:50 10° E visible
22 Feb - 01:50:19 10° NNW 01:56:31 66° WSW 02:02:49 10° SSE visible
22 Feb - 15:06:56 10° S 15:12:38 60° ESE 15:18:25 10° NNE daylight
22 Feb - 16:55:39 10° W 16:59:30 18° NW 17:03:24 10° N daylight
23 Feb - 00:15:37 10° N 00:20:54 28° ENE 00:26:16 10° ESE visible
23 Feb - 02:01:38 10° NW 02:07:26 41° WSW 02:13:20 10° S visible
23 Feb - 15:17:47 10° SSW 15:23:36 84° WNW 15:29:31 10° NNE daylight
23 Feb - 17:09:15 10° WNW 17:10:56 11° NW 17:12:37 10° NNW daylight
24 Feb - 00:26:12 10° N 00:32:07 43° ENE 00:38:07 10° SE visible
24 Feb - 02:13:17 10° NW 02:18:17 25° WSW 02:23:21 10° SSW visible
24 Feb - 13:44:58 10° SE 13:48:43 18° ESE 13:52:31 10° ENE daylight
24 Feb - 15:29:01 10° SW 15:34:39 51° WNW 15:40:24 10° NNE daylight
25 Feb - 00:36:59 10° NNW 00:43:13 68° ENE 00:49:33 10° SSE visible
25 Feb - 02:25:40 10° WNW 02:29:04 15° WSW 02:32:30 10° SW visible
25 Feb - 13:54:32 10° SSE 13:59:30 30° ESE 14:04:32 10° NE daylight
25 Feb - 15:40:40 10° WSW 15:45:49 32° WNW 15:51:04 10° N daylight
25 Feb - 23:03:28 10° NNE 23:07:11 16° NE 23:10:55 10° E daylight
